Weather History for KCPW - September, 2013

Change the Weather History Date:

Friday, September 20, 2013

  Actual Average (KALS) Record (KALS)
Temperature  
Mean Temperature 43 °F 53 °F  
Max Temperature 51 °F 72 °F 84 °F (2014)
Min Temperature 35 °F 35 °F 20 °F (1971)
Degree Days  
Heating Degree Days 22 12  
Month to date heating degree days 164  
Since 1 July heating degree days 293  
Cooling Degree Days 0 0  
Month to date cooling degree days 0  
Year to date cooling degree days 51  
Moisture  
Dew Point 29 °F    
Average Humidity 62    
Maximum Humidity 87    
Minimum Humidity 43    
Precipitation  
Precipitation 0.00 in 0.02 in 0.76 in (1997)
Month to date precipitation 0.66  
Year to date precipitation 5.61  
Snow  
Snow 0.00 in 0.00 in 0.00 in (2002)
Month to date snowfall 0.0  
Since 1 July snowfall 0.0  
Since 1 September snowfall 0.0  
Snow Depth -    
Sea Level Pressure  
Sea Level Pressure 30.50 in    
Wind  
Wind Speed 12 mph (SW)    
Max Wind Speed 26 mph    
Max Gust Speed 31 mph    
Visibility 10 miles    
Events      
T = Trace of Precipitation, MM = Missing Value Source: NWS Daily Summary

Daily Weather History Graph

Daily Weather History Graph

Search for Another Location

Airport or City:

Trip Planner

Search our weather history database for the weather conditions in past years. The results will help you decide how hot, cold, wet, or windy it might be!

Date:

Astronomy

Sep. 20, 2013 Rise Set
Actual Time 6:53 AM MDT 7:06 PM MDT
Civil Twilight 6:27 AM MDT 7:32 PM MDT
Nautical Twilight 5:56 AM MDT 8:03 PM MDT
Astronomical Twilight 5:25 AM MDT 8:34 PM MDT
Moon 7:45 PM MDT (9/20) 8:08 AM MDT (9/20)
Length of Visible Light 13h 05m
Length of Day
12h 13m
Full, 98% of the Moon is Illuminated
Sep 20
Full
Sep 26
Last Quarter
Oct 4
New
Oct 11
First Quarter
Oct 18
Full

Hourly Weather History & Observations

Time (MDT) Temp. Windchill Dew Point Humidity Pressure Visibility Wind Dir Wind Speed Gust Speed Precip Events Conditions
12:03 AM 39.2 °F 32.5 °F 33.8 °F 81% 30.49 in 10.0 mi WSW 10.4 mph - N/A   Clear
12:23 AM 39.2 °F 33.0 °F 33.8 °F 81% 30.48 in 10.0 mi SW 9.2 mph - N/A   Clear
12:43 AM 39.2 °F 32.5 °F 33.8 °F 81% 30.48 in 10.0 mi SW 10.4 mph - N/A   Clear
1:03 AM 37.4 °F 31.4 °F 33.8 °F 87% 30.48 in 10.0 mi SW 8.1 mph - N/A   Clear
1:23 AM 37.4 °F 31.4 °F 33.8 °F 87% 30.48 in 10.0 mi SW 8.1 mph - N/A   Clear
1:43 AM 37.4 °F 30.8 °F 33.8 °F 87% 30.48 in 10.0 mi SW 9.2 mph - N/A   Clear
2:03 AM 37.4 °F 30.8 °F 33.8 °F 87% 30.48 in 10.0 mi SW 9.2 mph - N/A   Clear
2:23 AM 37.4 °F 32.8 °F 33.8 °F 87% 30.49 in 10.0 mi SW 5.8 mph - N/A   Clear
2:43 AM 37.4 °F 30.3 °F 33.8 °F 87% 30.48 in 10.0 mi SW 10.4 mph - N/A   Clear
3:03 AM 37.4 °F 30.8 °F 32.0 °F 81% 30.48 in 10.0 mi SW 9.2 mph - N/A   Clear
3:23 AM 37.4 °F 30.8 °F 32.0 °F 81% 30.48 in 10.0 mi SW 9.2 mph - N/A   Clear
3:43 AM 37.4 °F 29.8 °F 32.0 °F 81% 30.48 in 10.0 mi SW 11.5 mph - N/A   Clear
4:03 AM 35.6 °F 27.5 °F 32.0 °F 87% 30.48 in 10.0 mi SW 11.5 mph - N/A   Clear
4:23 AM 35.6 °F 28.0 °F 32.0 °F 87% 30.48 in 10.0 mi SW 10.4 mph - N/A   Clear
4:43 AM 35.6 °F 28.6 °F 30.2 °F 81% 30.48 in 10.0 mi SW 9.2 mph - N/A   Clear
5:03 AM 35.6 °F 27.5 °F 30.2 °F 81% 30.48 in 10.0 mi SW 11.5 mph - N/A   Clear
5:23 AM 35.6 °F 26.6 °F 30.2 °F 81% 30.47 in 10.0 mi SW 13.8 mph 21.9 mph N/A   Clear
5:43 AM 35.6 °F 26.2 °F 30.2 °F 81% 30.47 in 10.0 mi SW 15.0 mph 19.6 mph N/A   Clear
6:03 AM 35.6 °F 26.2 °F 28.4 °F 75% 30.48 in 10.0 mi SW 15.0 mph 19.6 mph N/A   Clear
6:23 AM 35.6 °F 27.1 °F 28.4 °F 75% 30.49 in 10.0 mi SW 12.7 mph - N/A   Clear
6:43 AM 35.6 °F 27.1 °F 26.6 °F 70% 30.49 in 10.0 mi SW 12.7 mph - N/A   Clear
7:03 AM 35.6 °F 26.2 °F 24.8 °F 65% 30.49 in 10.0 mi SW 15.0 mph 18.4 mph N/A   Clear
7:23 AM 37.4 °F 28.2 °F 26.6 °F 65% 30.49 in 10.0 mi SW 16.1 mph 24.2 mph N/A   Clear
7:43 AM 37.4 °F 28.5 °F 26.6 °F 65% 30.50 in 10.0 mi SW 15.0 mph 21.9 mph N/A   Clear
8:03 AM 39.2 °F 29.8 °F 24.8 °F 56% 30.50 in 10.0 mi SW 18.4 mph 24.2 mph N/A   Clear
8:23 AM 41.0 °F 31.6 °F 23.0 °F 49% 30.50 in 10.0 mi SW 20.7 mph 27.6 mph N/A   Clear
8:43 AM 41.0 °F 30.5 °F 23.0 °F 49% 30.50 in 10.0 mi SW 26.5 mph 31.1 mph N/A   Clear
9:03 AM 42.8 °F 34.0 °F 23.0 °F 46% 30.50 in 10.0 mi SW 20.7 mph 31.1 mph N/A   Clear
9:23 AM 42.8 °F 34.5 °F 23.0 °F 46% 30.51 in 10.0 mi WSW 18.4 mph 27.6 mph N/A   Clear
9:43 AM 44.6 °F 38.4 °F 23.0 °F 43% 30.52 in 10.0 mi SW 12.7 mph 26.5 mph N/A   Clear
10:03 AM 44.6 °F 38.1 °F 26.6 °F 49% 30.52 in 10.0 mi WSW 13.8 mph 19.6 mph N/A   Clear
10:23 AM 44.6 °F 39.2 °F 28.4 °F 53% 30.53 in 10.0 mi SW 10.4 mph 17.3 mph N/A   Clear
10:43 AM 44.6 °F 38.4 °F 30.2 °F 57% 30.53 in 10.0 mi SSW 12.7 mph 21.9 mph N/A   Clear
11:03 AM 46.4 °F 41.9 °F 30.2 °F 53% 30.53 in 10.0 mi SW 9.2 mph 20.7 mph N/A   Clear
11:23 AM 46.4 °F 40.7 °F 30.2 °F 53% 30.53 in 10.0 mi SSW 12.7 mph 17.3 mph N/A   Clear
11:43 AM 46.4 °F 41.5 °F 30.2 °F 53% 30.53 in 10.0 mi SSW 10.4 mph 18.4 mph N/A   Clear
12:03 PM 48.2 °F - 32.0 °F 54% 30.54 in 10.0 mi SW 8.1 mph - N/A   Clear
12:23 PM 46.4 °F 43.5 °F 30.2 °F 53% 30.53 in 10.0 mi SSW 5.8 mph - N/A   Clear
12:43 PM 46.4 °F 41.1 °F 30.2 °F 53% 30.52 in 10.0 mi South 11.5 mph 17.3 mph N/A   Clear
1:03 PM 46.4 °F 42.4 °F 32.0 °F 57% 30.53 in 10.0 mi SSW 8.1 mph 17.3 mph N/A   Clear
1:23 PM 48.2 °F - 32.0 °F 54% 30.53 in 10.0 mi SSW 10.4 mph 20.7 mph N/A   Clear
1:43 PM 48.2 °F - 32.0 °F 54% 30.52 in 10.0 mi SSW 12.7 mph 23.0 mph N/A   Clear
2:03 PM 46.4 °F 40.7 °F 32.0 °F 57% 30.52 in 10.0 mi SSW 12.7 mph 19.6 mph N/A   Clear
2:23 PM 50.0 °F - 32.0 °F 50% 30.52 in 10.0 mi SSW 15.0 mph 24.2 mph N/A   Clear
2:43 PM 50.0 °F - 32.0 °F 50% 30.51 in 10.0 mi SSW 17.3 mph 25.3 mph N/A   Scattered Clouds
3:03 PM 50.0 °F - 32.0 °F 50% 30.51 in 10.0 mi SSW 12.7 mph 19.6 mph N/A   Clear
3:23 PM 50.0 °F - 32.0 °F 50% 30.50 in 10.0 mi SSW 11.5 mph 23.0 mph N/A   Clear
3:43 PM 51.8 °F - 32.0 °F 47% 30.50 in 10.0 mi SSW 11.5 mph 20.7 mph N/A   Clear
4:03 PM 50.0 °F - 30.2 °F 47% 30.50 in 10.0 mi South 11.5 mph 23.0 mph N/A   Clear
4:23 PM 50.0 °F - 28.4 °F 43% 30.50 in 10.0 mi SSW 11.5 mph 23.0 mph N/A   Clear
4:43 PM 50.0 °F - 28.4 °F 43% 30.49 in 10.0 mi SSW 13.8 mph 24.2 mph N/A   Clear
5:03 PM 50.0 °F - 28.4 °F 43% 30.50 in 10.0 mi SW 10.4 mph 20.7 mph N/A   Clear
5:23 PM 50.0 °F - 28.4 °F 43% 30.49 in 10.0 mi SW 10.4 mph 21.9 mph N/A   Clear
5:43 PM 48.2 °F - 26.6 °F 43% 30.49 in 10.0 mi SSW 12.7 mph 21.9 mph N/A   Clear
6:03 PM 48.2 °F - 26.6 °F 43% 30.49 in 10.0 mi SW 13.8 mph 20.7 mph N/A   Clear
6:23 PM 46.4 °F 40.1 °F 26.6 °F 46% 30.49 in 10.0 mi SSW 15.0 mph 19.6 mph N/A   Clear
6:43 PM 44.6 °F 38.4 °F 28.4 °F 53% 30.49 in 10.0 mi SSW 12.7 mph 18.4 mph N/A   Clear
7:03 PM 44.6 °F 38.4 °F 26.6 °F 49% 30.49 in 10.0 mi SW 12.7 mph 19.6 mph N/A   Clear
7:23 PM 42.8 °F 35.8 °F 26.6 °F 53% 30.49 in 10.0 mi SW 13.8 mph - N/A   Clear
7:43 PM 42.8 °F 35.8 °F 26.6 °F 53% 30.49 in 10.0 mi SW 13.8 mph 19.6 mph N/A   Clear
8:03 PM 42.8 °F 35.4 °F 28.4 °F 57% 30.50 in 10.0 mi SW 15.0 mph 21.9 mph N/A   Clear
8:23 PM 41.0 °F 32.8 °F 28.4 °F 61% 30.50 in 10.0 mi SW 16.1 mph 21.9 mph N/A   Clear
8:43 PM 41.0 °F 33.1 °F 28.4 °F 61% 30.51 in 10.0 mi SW 15.0 mph - N/A   Clear
9:03 PM 41.0 °F 33.1 °F 28.4 °F 61% 30.52 in 10.0 mi SW 15.0 mph 20.7 mph N/A   Clear
9:23 PM 41.0 °F 33.5 °F 28.4 °F 61% 30.52 in 10.0 mi SW 13.8 mph 19.6 mph N/A   Clear
9:43 PM 41.0 °F 32.5 °F 28.4 °F 61% 30.52 in 10.0 mi SW 17.3 mph - N/A   Clear
10:03 PM 41.0 °F 32.5 °F 28.4 °F 61% 30.52 in 10.0 mi SW 17.3 mph - N/A   Clear
10:23 PM 41.0 °F 33.1 °F 28.4 °F 61% 30.52 in 10.0 mi SW 15.0 mph - N/A   Clear
10:43 PM 41.0 °F 32.2 °F 28.4 °F 61% 30.52 in 10.0 mi SW 18.4 mph - N/A   Clear
11:03 PM 41.0 °F 32.5 °F 28.4 °F 61% 30.52 in 10.0 mi SW 17.3 mph - N/A   Clear
11:23 PM 41.0 °F 33.5 °F 28.4 °F 61% 30.52 in 10.0 mi SW 13.8 mph - N/A   Clear
11:43 PM 41.0 °F 33.9 °F 28.4 °F 61% 30.52 in 10.0 mi SW 12.7 mph - N/A   Clear